Hourly Data Report for September 21, 2017

All times are specified in Local Standard Time (LST). Add 1 hour to adjust for Daylight Saving Time where and when it is observed.

COMOX A
BRITISH COLUMBIA

49°43'00.000" N
124°54'00.000" W
25.60 m
1021830
71893
YQQ

Download Data

Hourly Data (September 2017)
Hourly Data Report for September 21, 2017
Temp Definition
°C
Dew Point Temp Definition
°C
Rel Hum Definition
%
Wind Dir Definition
10's deg

Wind Spd Definition
km/h
Visibility Definition
km
Stn Press Definition
kPa
Hmdx Definition


Wind Chill Definition


Weather Definition


TIME
00:00 12.0 8.1 77 35 15 32.2 100.65     Mostly Cloudy
01:00 11.9 7.2 73 34 7 32.2 100.72     Mostly Cloudy
02:00 10.9 8.2 83 34 9 32.2 100.76     Mainly Clear
03:00 8.1 7.1 93 25 4 32.2 100.80     Mainly Clear
04:00 7.4 6.7 95   0 32.2 100.86     Mainly Clear
05:00 7.5 6.5 93 21 4 32.2 100.91     Mainly Clear
06:00 7.6 6.6 93 28 4 32.2 100.99     Mainly Clear
07:00 8.6 7.2 91 27 6 32.2 101.05     Mainly Clear
08:00 11.6 7.6 76 30 7 32.2 101.08     Mainly Clear
09:00 11.8 8.8 82 32 6 32.2 101.12     Mainly Clear
10:00 13.9 10.5 80 36 9 32.2 101.16     Mainly Clear
11:00 15.3 9.7 69 36 11 32.2 101.15     Clear
12:00 15.6 10.1 70 1 11 32.2 101.14     Clear
13:00 15.9 8.1 60 1 9 32.2 101.12     Clear
14:00 16.7 8.5 58 7 7 32.2 101.12     Clear
15:00 18.7 7.4 48 10 6 32.2 101.12     Clear
16:00 19.4 6.0 42 2 7 32.2 101.12     Clear
17:00 18.7 6.3 44 3 4 32.2 101.13     Clear
18:00 15.6 8.5 63 19 4 32.2 101.16     Clear
19:00 13.3 9.3 77 22 6 32.2 101.19     Clear
20:00 12.5 7.9 74   0 32.2 101.23     Clear
21:00 11.7 6.6 71 29 7 32.2 101.26     Mainly Clear
22:00 11.0 6.5 74 31 4 32.2 101.31     Clear
23:00 11.2 6.7 74 33 4 32.2 101.36     Clear

Notes on Data Quality.

Legend

  • E = Estimated
  • M = Missing
  • NA = Not Available
  • ‡ = Partner data that is not subject to review by the National Climate Archives
Date modified: